CPV1026 SBSP-SBCT

Flight info

Callsign CPV1026
Flight time 0h 38m
Altitude 28000
Route SOVSI UZ85 RAXIT
Aircraft B738/M-SDE3/L

Departure

Time 2026-05-04 22:42
Airport Congonhas–Deputado Freitas Nobre Airport (SBSP)

Arrival

Time 2026-05-04 23:20
Airport Curitiba-Afonso Pena International Airport (SBCT)
Time Latitude Longitude Altitude Speed Heading
2026-05-04 22:28 -23.62509 -46.65963 2599 ft 0 kts 237°
2026-05-04 22:37 -23.62496 -46.65943 2600 ft 4 kts 234°
2026-05-04 22:37 -23.62489 -46.65929 2600 ft 2 kts 291°
2026-05-04 22:37 -23.62496 -46.65920 2600 ft 2 kts 326°
2026-05-04 22:37 -23.62502 -46.65915 2600 ft 0 kts 326°
2026-05-04 22:39 -23.62484 -46.65926 2600 ft 9 kts 332°
2026-05-04 22:40 -23.62390 -46.65993 2599 ft 22 kts 327°
2026-05-04 22:40 -23.62267 -46.66043 2599 ft 15 kts 353°
2026-05-04 22:40 -23.62176 -46.66087 2598 ft 14 kts 329°
2026-05-04 22:40 -23.62093 -46.66134 2597 ft 13 kts 349°
2026-05-04 22:41 -23.62041 -46.66094 2590 ft 10 kts 93°
2026-05-04 22:41 -23.62079 -46.66048 2592 ft 8 kts 144°
2026-05-04 22:41 -23.62111 -46.66023 2593 ft 21 kts 146°
2026-05-04 22:41 -23.62486 -46.65756 2603 ft 106 kts 144°
2026-05-04 22:42 -23.63315 -46.65177 2668 ft 171 kts 147°
2026-05-04 22:42 -23.64428 -46.64512 3492 ft 183 kts 155°
2026-05-04 22:42 -23.65578 -46.64065 4817 ft 169 kts 153°
2026-05-04 22:42 -23.66577 -46.63389 5708 ft 171 kts 146°
2026-05-04 22:43 -23.67645 -46.62704 6331 ft 189 kts 158°
2026-05-04 22:43 -23.69037 -46.62650 6595 ft 218 kts 201°
2026-05-04 22:43 -23.70462 -46.63414 6824 ft 246 kts 205°
2026-05-04 22:43 -23.72178 -46.64088 7101 ft 275 kts 195°
2026-05-04 22:44 -23.74089 -46.64510 7486 ft 284 kts 191°
2026-05-04 22:44 -23.75906 -46.65281 7488 ft 280 kts 220°
2026-05-04 22:44 -23.77190 -46.66870 7773 ft 281 kts 238°
2026-05-04 22:44 -23.78179 -46.68722 8665 ft 282 kts 243°
2026-05-04 22:45 -23.79097 -46.70610 9661 ft 282 kts 243°
2026-05-04 22:45 -23.80980 -46.74510 10860 ft 310 kts 243°
2026-05-04 22:45 -23.82034 -46.76662 11212 ft 329 kts 243°
2026-05-04 22:46 -23.83132 -46.78886 11920 ft 335 kts 242°
2026-05-04 22:46 -23.84246 -46.81130 12740 ft 337 kts 242°
2026-05-04 22:46 -23.85355 -46.83359 13542 ft 340 kts 242°
2026-05-04 22:46 -23.86493 -46.85644 14257 ft 344 kts 242°
2026-05-04 22:47 -23.87631 -46.87951 14976 ft 345 kts 244°
2026-05-04 22:47 -23.88650 -46.90330 15736 ft 346 kts 247°
2026-05-04 22:47 -23.89593 -46.92749 16460 ft 347 kts 248°
2026-05-04 22:47 -23.90520 -46.95194 17175 ft 349 kts 248°
2026-05-04 22:48 -23.91453 -46.97658 17877 ft 352 kts 248°
2026-05-04 22:48 -23.92395 -47.00131 18558 ft 354 kts 248°
2026-05-04 22:48 -23.93350 -47.02621 19171 ft 355 kts 248°
2026-05-04 22:48 -23.94310 -47.05115 19834 ft 355 kts 248°
2026-05-04 22:49 -23.95269 -47.07597 20501 ft 355 kts 248°
2026-05-04 22:49 -23.96233 -47.10088 21122 ft 356 kts 248°
2026-05-04 22:49 -23.97200 -47.12587 21783 ft 356 kts 248°
2026-05-04 22:49 -23.98157 -47.15062 22630 ft 350 kts 248°
2026-05-04 22:50 -23.99099 -47.17495 23593 ft 342 kts 248°
2026-05-04 22:50 -24.00016 -47.19869 24362 ft 337 kts 248°
2026-05-04 22:50 -24.00928 -47.22230 24961 ft 337 kts 249°
2026-05-04 22:50 -24.01840 -47.24593 25542 ft 336 kts 249°
2026-05-04 22:51 -24.02747 -47.26942 26056 ft 335 kts 249°
2026-05-04 22:51 -24.03638 -47.29253 26128 ft 332 kts 249°
2026-05-04 22:51 -24.04541 -47.31594 26165 ft 328 kts 249°
2026-05-04 22:51 -24.05428 -47.33897 26169 ft 329 kts 249°
2026-05-04 22:52 -24.06306 -47.36180 26181 ft 330 kts 249°
2026-05-04 22:52 -24.07199 -47.38502 26172 ft 331 kts 249°
2026-05-04 22:52 -24.08095 -47.40829 26161 ft 331 kts 249°
2026-05-04 22:52 -24.08987 -47.43148 26167 ft 331 kts 249°
2026-05-04 22:53 -24.10074 -47.45380 26171 ft 335 kts 239°
2026-05-04 22:53 -24.11545 -47.47369 26171 ft 339 kts 232°
2026-05-04 22:53 -24.13283 -47.49140 26163 ft 344 kts 222°
2026-05-04 22:53 -24.15293 -47.50583 26171 ft 346 kts 219°
2026-05-04 22:54 -24.17343 -47.51986 26183 ft 351 kts 219°
2026-05-04 22:54 -24.19453 -47.53437 26175 ft 365 kts 219°
2026-05-04 22:54 -24.21631 -47.54942 26183 ft 376 kts 219°
2026-05-04 22:54 -24.23879 -47.56499 26176 ft 387 kts 219°
2026-05-04 22:55 -24.26185 -47.58099 26176 ft 397 kts 218°
2026-05-04 22:55 -24.28542 -47.59736 26172 ft 404 kts 218°
2026-05-04 22:55 -24.30921 -47.61387 26158 ft 403 kts 218°
2026-05-04 22:55 -24.33287 -47.63028 26153 ft 400 kts 219°
2026-05-04 22:56 -24.35633 -47.64661 26156 ft 398 kts 219°
2026-05-04 22:56 -24.37970 -47.66290 26152 ft 397 kts 219°
2026-05-04 22:56 -24.40296 -47.67910 26159 ft 396 kts 219°
2026-05-04 22:56 -24.41831 -47.68990 26149 ft 394 kts 220°
2026-05-04 22:57 -24.43961 -47.70843 26156 ft 387 kts 228°
2026-05-04 22:57 -24.46553 -47.73529 26152 ft 387 kts 229°
2026-05-04 22:57 -24.47866 -47.74910 26160 ft 387 kts 229°
2026-05-04 22:57 -24.50451 -47.77618 26153 ft 389 kts 229°
2026-05-04 22:58 -24.51781 -47.79000 26152 ft 389 kts 229°
2026-05-04 22:58 -24.53753 -47.81037 26150 ft 390 kts 229°
2026-05-04 22:58 -24.55737 -47.83074 26152 ft 390 kts 228°
2026-05-04 22:58 -24.57727 -47.85111 26157 ft 391 kts 228°
2026-05-04 22:59 -24.59721 -47.87149 26155 ft 391 kts 228°
2026-05-04 22:59 -24.61687 -47.89158 26157 ft 391 kts 228°
2026-05-04 22:59 -24.63681 -47.91195 26154 ft 391 kts 228°
2026-05-04 22:59 -24.65661 -47.93216 26133 ft 380 kts 228°
2026-05-04 23:00 -24.67556 -47.95145 26139 ft 363 kts 229°
2026-05-04 23:00 -24.69370 -47.96993 26140 ft 347 kts 229°
2026-05-04 23:00 -24.71111 -47.98772 26147 ft 339 kts 229°
2026-05-04 23:00 -24.72833 -48.00540 26158 ft 338 kts 229°
2026-05-04 23:01 -24.74551 -48.02307 26164 ft 338 kts 229°
2026-05-04 23:01 -24.76277 -48.04083 25943 ft 341 kts 229°
2026-05-04 23:01 -24.77995 -48.05846 25673 ft 336 kts 229°
2026-05-04 23:01 -24.79698 -48.07595 25311 ft 332 kts 229°
2026-05-04 23:02 -24.81376 -48.09317 24933 ft 330 kts 229°
2026-05-04 23:02 -24.83050 -48.11036 24549 ft 327 kts 229°
2026-05-04 23:02 -24.84712 -48.12743 24147 ft 326 kts 228°
2026-05-04 23:02 -24.86366 -48.14445 23741 ft 325 kts 228°
2026-05-04 23:03 -24.88012 -48.16136 23298 ft 322 kts 228°
2026-05-04 23:03 -24.89647 -48.17817 22872 ft 320 kts 228°
2026-05-04 23:03 -24.91268 -48.19486 22471 ft 318 kts 227°
2026-05-04 23:03 -24.92882 -48.21149 22054 ft 317 kts 227°
2026-05-04 23:04 -24.94487 -48.22800 21663 ft 314 kts 227°
2026-05-04 23:04 -24.96080 -48.24440 21282 ft 313 kts 227°
2026-05-04 23:04 -24.97648 -48.26095 20891 ft 310 kts 231°
2026-05-04 23:04 -24.98809 -48.28034 20349 ft 310 kts 246°
2026-05-04 23:05 -24.99727 -48.30189 19892 ft 311 kts 245°
2026-05-04 23:05 -25.00668 -48.32335 19521 ft 310 kts 245°
2026-05-04 23:05 -25.01617 -48.34470 19130 ft 310 kts 245°
2026-05-04 23:05 -25.02488 -48.36637 18853 ft 308 kts 248°
2026-05-04 23:06 -25.03273 -48.38823 18625 ft 306 kts 249°
2026-05-04 23:06 -25.04045 -48.41035 18393 ft 312 kts 249°
2026-05-04 23:06 -25.04840 -48.43315 18144 ft 324 kts 249°
2026-05-04 23:06 -25.05661 -48.45659 18078 ft 328 kts 249°
2026-05-04 23:07 -25.06490 -48.48012 18075 ft 329 kts 249°
2026-05-04 23:07 -25.07323 -48.50363 18062 ft 328 kts 249°
2026-05-04 23:07 -25.08154 -48.52701 18068 ft 327 kts 249°
2026-05-04 23:07 -25.08984 -48.55037 18075 ft 327 kts 249°
2026-05-04 23:08 -25.09818 -48.57379 18073 ft 327 kts 249°
2026-05-04 23:08 -25.10640 -48.59690 18078 ft 328 kts 249°
2026-05-04 23:08 -25.11487 -48.62068 17616 ft 333 kts 249°
2026-05-04 23:08 -25.12315 -48.64396 17207 ft 329 kts 249°
2026-05-04 23:09 -25.13151 -48.66747 16761 ft 328 kts 249°
2026-05-04 23:09 -25.13982 -48.69082 16336 ft 326 kts 249°
2026-05-04 23:09 -25.14807 -48.71406 15909 ft 325 kts 249°
2026-05-04 23:09 -25.15631 -48.73726 15483 ft 324 kts 249°
2026-05-04 23:10 -25.16453 -48.76042 15049 ft 324 kts 250°
2026-05-04 23:10 -25.17274 -48.78354 14619 ft 323 kts 250°
2026-05-04 23:10 -25.18093 -48.80664 14198 ft 323 kts 250°
2026-05-04 23:10 -25.18912 -48.82976 13739 ft 323 kts 250°
2026-05-04 23:11 -25.19731 -48.85289 13308 ft 322 kts 250°
2026-05-04 23:11 -25.20544 -48.87589 12862 ft 322 kts 249°
2026-05-04 23:11 -25.21357 -48.89887 12427 ft 321 kts 249°
2026-05-04 23:11 -25.22168 -48.92181 12006 ft 320 kts 249°
2026-05-04 23:12 -25.22975 -48.94464 11590 ft 319 kts 249°
2026-05-04 23:12 -25.23778 -48.96739 11163 ft 318 kts 249°
2026-05-04 23:12 -25.24580 -48.99013 10746 ft 317 kts 249°
2026-05-04 23:12 -25.25368 -49.01244 10570 ft 305 kts 249°
2026-05-04 23:13 -25.26116 -49.03365 10424 ft 287 kts 249°
2026-05-04 23:13 -25.26822 -49.05367 10291 ft 273 kts 249°
2026-05-04 23:13 -25.27502 -49.07301 10129 ft 267 kts 249°
2026-05-04 23:13 -25.28177 -49.09219 9817 ft 267 kts 249°
2026-05-04 23:14 -25.28849 -49.11130 9447 ft 269 kts 249°
2026-05-04 23:14 -25.29526 -49.13057 9014 ft 273 kts 249°
2026-05-04 23:14 -25.30214 -49.15014 8668 ft 274 kts 249°
2026-05-04 23:14 -25.30904 -49.16976 8357 ft 273 kts 249°
2026-05-04 23:15 -25.31589 -49.18925 8059 ft 271 kts 250°
2026-05-04 23:15 -25.32270 -49.20866 7772 ft 270 kts 250°
2026-05-04 23:15 -25.32947 -49.22790 7591 ft 265 kts 249°
2026-05-04 23:15 -25.33914 -49.24496 7313 ft 266 kts 225°
2026-05-04 23:16 -25.35280 -49.25856 7055 ft 261 kts 225°
2026-05-04 23:16 -25.36575 -49.27220 6768 ft 254 kts 225°
2026-05-04 23:16 -25.37832 -49.28566 6489 ft 248 kts 225°
2026-05-04 23:16 -25.39089 -49.29855 6195 ft 247 kts 217°
2026-05-04 23:17 -25.40694 -49.30467 5898 ft 249 kts 178°
2026-05-04 23:17 -25.42282 -49.29827 5620 ft 245 kts 137°
2026-05-04 23:17 -25.43385 -49.28418 5389 ft 241 kts 128°
2026-05-04 23:17 -25.44495 -49.27028 5126 ft 239 kts 130°
2026-05-04 23:18 -25.45624 -49.25705 4834 ft 233 kts 132°
2026-05-04 23:18 -25.46747 -49.24442 4519 ft 227 kts 133°
2026-05-04 23:18 -25.47825 -49.23231 4228 ft 213 kts 132°
2026-05-04 23:18 -25.48808 -49.22124 3943 ft 193 kts 132°
2026-05-04 23:19 -25.49707 -49.21109 3688 ft 176 kts 133°
2026-05-04 23:19 -25.50518 -49.20197 3497 ft 156 kts 133°
2026-05-04 23:19 -25.51258 -49.19362 3278 ft 155 kts 133°
2026-05-04 23:19 -25.52004 -49.18518 3080 ft 151 kts 131°
2026-05-04 23:20 -25.52707 -49.17720 2982 ft 134 kts 133°
2026-05-04 23:20 -25.53129 -49.17264 2983 ft 35 kts 134°
2026-05-04 23:20 -25.53292 -49.17076 2982 ft 34 kts 134°
2026-05-04 23:20 -25.53449 -49.16901 2981 ft 28 kts 136°
2026-05-04 23:21 -25.53571 -49.16779 2980 ft 22 kts 160°
2026-05-04 23:21 -25.53641 -49.16873 2980 ft 19 kts 287°
2026-05-04 23:21 -25.53633 -49.17006 2980 ft 15 kts 271°
2026-05-04 23:21 -25.53585 -49.17095 2980 ft 12 kts 311°
2026-05-04 23:22 -25.53584 -49.17130 2980 ft 4 kts 221°
2026-05-04 23:22 -25.53600 -49.17154 2980 ft 4 kts 263°
2026-05-04 23:22 -25.53584 -49.17176 2980 ft 4 kts 338°
2026-05-04 23:22 -25.53552 -49.17199 2980 ft 4 kts 288°
2026-05-04 23:23 -25.53560 -49.17223 2980 ft 1 kts 234°
2026-05-04 23:23 -25.53561 -49.17225 2980 ft 0 kts 233°